Date_and_time,latitude,longitude,wind_speed,RelWindDirFrom,WindDirFrom,air_pressure,air_temperature,relative_humidity,Temp,platform_speed_wrt_ground,air_pressure_at_mean_sea_level,platform_orientation
2019-11-09 23:40,50.6304483333333,-96.9807733333333,13.6,20.1,346,989.59,-5.4,81,0.91,0.0,1018.03,360.0
2019-11-09 23:50,50.6304483333333,-96.980775,14.7,22.7,344,989.70,-5.8,76,0.95,0.0,1018.17,360.0
2019-11-10 00:00,50.6304483333333,-96.980775,14.7,21.8,342,989.91,-6.1,76,0.97,0.0,1018.40,360.0
2019-11-10 00:10,50.6304483333333,-96.9807766666667,16.3,23.2,348,990.06,-6.3,78,0.98,0.0,1018.57,360.0
2019-11-10 00:20,50.6304466666667,-96.9807766666667,14.4,20.4,346,990.36,-6.4,79,1.00,0.0,1018.88,360.0
2019-11-10 00:30,50.6304466666667,-96.9807783333333,15.3,23.2,347,990.55,-6.6,79,1.02,0.0,1019.09,360.0
2019-11-10 00:40,50.6304466666667,-96.9807783333333,16.2,20.2,345,990.84,-6.8,80,1.02,0.0,1019.40,360.0
2019-11-10 00:50,50.6304466666667,-96.9807766666667,15.5,24.0,339,991.00,-7.2,79,0.99,0.0,1019.59,360.0
2019-11-10 01:00,50.6304466666667,-96.9807766666667,15.9,21.6,339,991.14,-7.7,73,0.98,0.0,1019.78,347.4
2019-11-10 01:10,50.6304466666667,-96.9807766666667,14.6,20.9,343,991.44,-8.0,71,1.00,0.0,1020.11,347.4
2019-11-10 01:20,50.630445,-96.980775,16.3,23.3,342,991.54,-8.2,70,1.00,0.0,1020.24,347.4
2019-11-10 01:30,50.630445,-96.980775,15.8,21.6,341,991.75,-8.4,71,0.95,0.0,1020.46,347.4
2019-11-10 01:40,50.630445,-96.980775,14.5,20.6,343,992.19,-8.5,71,0.93,0.0,1020.94,347.4
2019-11-10 01:50,50.6304416666667,-96.98077,15.2,22.0,339,992.34,-8.6,70,0.93,0.0,1021.11,347.4
2019-11-10 02:00,50.6304416666667,-96.98077,16.5,24.9,348,992.58,-8.6,71,0.94,0.0,1021.38,90.0
2019-11-10 02:10,50.6304433333333,-96.98078,16.9,25.3,349,992.74,-8.7,71,0.95,0.0,1021.55,90.0
2019-11-10 02:20,50.6304383333333,-96.98077,14.4,21.3,347,992.80,-8.8,72,0.96,0.0,1021.62,90.0
2019-11-10 02:30,50.6304366666667,-96.9807683333333,14.4,22.4,340,992.99,-9.1,71,0.96,0.0,1021.85,90.0
2019-11-10 02:40,50.6304383333333,-96.9807666666667,14.3,19.5,343,993.16,-9.3,71,0.97,0.0,1022.06,90.0
2019-11-10 02:50,50.63044,-96.9807666666667,14.4,19.9,347,993.31,-9.3,72,0.98,0.0,1022.24,90.0
2019-11-10 03:00,50.6304383333333,-96.9807683333333,15.6,22.0,347,993.46,-9.5,72,0.99,0.0,1022.42,131.7
2019-11-10 03:10,50.6304383333333,-96.9807716666667,14.8,21.9,347,993.58,-9.5,72,1.01,0.0,1022.56,131.7
2019-11-10 03:20,50.6304466666667,-96.9807716666667,14.3,19.7,345,993.57,-9.8,71,1.01,0.0,1022.57,131.7
2019-11-10 03:30,50.6304416666667,-96.980765,12.2,16.3,341,993.81,-10.0,71,1.02,0.0,1022.84,131.7
2019-11-10 03:40,50.630445,-96.9807633333333,12.8,18.3,340,993.89,-10.1,71,1.04,0.0,1022.94,131.7
2019-11-10 03:50,50.6304433333333,-96.9807683333333,11.5,16.6,340,994.15,-10.1,71,1.03,0.0,1023.20,131.7
2019-11-10 04:00,50.6304433333333,-96.98077,11.3,15.2,346,994.21,-9.9,73,1.01,0.0,1023.26,167.4
2019-11-10 04:10,50.6304433333333,-96.980765,9.9,16.0,329,994.25,-10.1,71,1.00,0.0,1023.31,167.4
2019-11-10 04:20,50.6304466666667,-96.980785,9.6,13.9,332,994.42,-10.4,71,0.99,0.0,1023.52,167.4
2019-11-10 04:30,50.6304516666667,-96.9807733333333,8.7,12.2,324,994.76,-10.6,70,0.95,0.0,1023.89,167.4
2019-11-10 04:40,50.6304466666667,-96.980765,7.2,9.9,321,994.96,-11.0,71,0.93,0.0,1024.12,167.4
2019-11-10 04:50,50.6304466666667,-96.980765,7.8,10.9,319,994.97,-11.3,71,0.93,0.0,1024.16,167.4
2019-11-10 05:00,50.630445,-96.9807666666667,7.1,9.7,310,995.05,-11.6,72,0.94,0.0,1024.26,0.0
2019-11-10 05:10,50.630445,-96.9807666666667,8.1,10.9,313,995.02,-11.9,72,0.94,0.0,1024.26,0.0
2019-11-10 05:20,50.630445,-96.9807683333333,7.8,10.5,306,995.30,-12.1,71,0.94,0.0,1024.57,0.0
2019-11-10 05:30,50.630445,-96.9807683333333,7.9,10.7,308,995.44,-12.3,71,0.94,0.0,1024.73,0.0
2019-11-10 05:40,50.630435,-96.9807916666667,8.3,10.7,312,995.62,-12.3,72,0.96,0.0,1024.92,0.0
2019-11-10 05:50,50.6304483333333,-96.9807716666667,8.9,12.0,312,995.68,-12.3,72,0.97,0.0,1024.97,0.0
2019-11-10 06:00,50.6304433333333,-96.980765,9.0,12.4,314,995.76,-12.1,72,0.98,0.0,1025.05,90.0
2019-11-10 06:10,50.6304433333333,-96.98076,8.4,11.7,318,995.92,-12.1,73,0.97,0.0,1025.24,90.0
2019-11-10 06:20,50.6304833333333,-96.9807916666667,8.2,11.5,323,996.14,-12.0,73,0.97,0.0,1025.46,90.0
2019-11-10 06:30,50.6304416666667,-96.98076,8.3,11.2,321,996.46,-12.1,74,0.97,0.0,1025.83,90.0
2019-11-10 06:40,50.63044,-96.9807533333333,7.1,9.8,323,996.67,-12.0,74,0.95,0.0,1026.05,90.0
2019-11-10 06:50,50.63044,-96.980755,7.7,10.4,322,996.82,-11.8,73,0.96,0.0,1026.22,90.0
2019-11-10 07:00,50.6304416666667,-96.9807583333333,8.2,11.8,318,997.05,-11.8,72,0.99,0.0,1026.46,90.0
2019-11-10 07:10,50.6304416666667,-96.9807583333333,7.8,10.9,320,997.17,-11.7,72,1.01,0.0,1026.60,90.0
2019-11-10 07:20,50.6304333333333,-96.9807666666667,7.0,10.3,326,997.10,-11.8,72,1.01,0.0,1026.54,90.0
2019-11-10 07:30,50.6304416666667,-96.9807633333333,7.4,9.9,329,997.18,-11.8,73,1.01,0.0,1026.62,90.0
2019-11-10 07:40,50.6304433333333,-96.9807666666667,8.1,12.1,337,997.35,-11.6,74,1.03,0.0,1026.79,90.0
2019-11-10 07:50,50.6304433333333,-96.980765,7.8,10.1,342,997.40,-11.4,73,1.06,0.0,1026.82,90.0
2019-11-10 08:00,50.6304416666667,-96.9807683333333,8.0,10.4,342,997.46,-11.0,73,1.08,0.0,1026.85,0.0
2019-11-10 08:10,50.6304416666667,-96.9807716666667,7.7,11.3,337,997.61,-10.9,71,1.08,0.0,1026.99,0.0
2019-11-10 08:20,50.6304283333333,-96.9807833333333,7.6,10.9,330,997.66,-10.9,70,1.04,0.0,1027.06,0.0
2019-11-10 08:30,50.6304283333333,-96.98078,7.3,10.2,323,997.77,-11.3,69,1.00,0.0,1027.17,0.0
2019-11-10 08:40,50.6304316666667,-96.9807683333333,6.7,8.4,319,997.90,-11.5,69,0.97,0.0,1027.32,0.0
2019-11-10 08:50,50.630435,-96.980765,6.4,8.6,317,998.05,-11.7,70,0.97,0.0,1027.48,0.0
2019-11-10 09:00,50.630435,-96.980765,5.9,8.2,317,998.30,-11.8,71,0.98,0.0,1027.74,142.0
2019-11-10 09:10,50.6304366666667,-96.9807866666667,6.1,8.3,321,998.36,-11.9,71,0.99,0.0,1027.81,142.0
2019-11-10 09:20,50.6304383333333,-96.9807783333333,5.4,7.5,313,998.35,-11.9,72,1.00,0.0,1027.80,142.0
2019-11-10 09:30,50.6304383333333,-96.980775,5.8,7.8,312,998.38,-12.0,72,1.00,0.0,1027.83,142.0
2019-11-10 09:40,50.6304366666667,-96.9807716666667,5.0,7.0,306,998.36,-12.1,73,1.00,0.0,1027.79,142.0
2019-11-10 09:50,50.6304366666667,-96.98077,4.7,6.3,296,998.34,-12.1,74,1.01,0.0,1027.76,142.0
2019-11-10 10:00,50.630435,-96.9807716666667,5.2,7.0,289,998.45,-12.3,74,1.02,0.0,1027.87,240.8
2019-11-10 10:10,50.6304333333333,-96.9807716666667,5.0,7.0,291,998.58,-12.5,75,1.02,0.0,1028.02,240.8
2019-11-10 10:20,50.6304166666667,-96.9807633333333,5.2,6.9,296,998.64,-12.6,77,1.02,0.0,1028.11,240.8
2019-11-10 10:30,50.63042,-96.9807633333333,5.1,7.2,304,998.65,-12.6,79,1.02,0.0,1028.13,240.8
2019-11-10 10:40,50.6304216666667,-96.9807666666667,4.8,6.6,292,998.62,-12.8,80,1.02,0.0,1028.12,240.8
2019-11-10 10:50,50.6304216666667,-96.9807683333333,4.7,6.2,287,998.71,-12.9,82,1.02,0.0,1028.23,240.8
2019-11-10 11:00,50.6304283333333,-96.98079,4.6,6.5,282,998.75,-12.9,83,1.02,0.0,1028.27,228.4
2019-11-10 11:10,50.63043,-96.980785,4.6,6.5,291,998.84,-13.0,83,1.02,0.0,1028.37,228.4
2019-11-10 11:20,50.6304316666667,-96.9807883333333,5.0,6.7,291,999.08,-13.1,83,1.03,0.0,1028.63,228.4
2019-11-10 11:30,50.6304333333333,-96.98079,4.8,6.5,295,999.21,-13.1,83,1.03,0.0,1028.78,228.4
2019-11-10 11:40,50.630435,-96.9807866666667,4.8,7.1,291,999.32,-13.1,83,1.04,0.0,1028.89,228.4
2019-11-10 11:50,50.630435,-96.980785,4.2,6.4,287,999.40,-12.9,84,1.04,0.0,1028.97,228.4
2019-11-10 12:00,50.6304666666667,-96.9808116666667,4.6,6.7,277,999.44,-12.8,84,1.04,0.0,1029.01,318.4
2019-11-10 12:10,50.6303866666667,-96.9807783333333,4.5,6.6,280,999.46,-12.8,84,1.03,0.0,1029.04,318.4
2019-11-10 12:20,50.6304333333333,-96.980775,4.6,6.7,279,999.49,-13.0,84,1.02,0.0,1029.08,318.4
2019-11-10 12:30,50.63042,-96.980805,5.3,7.7,275,999.55,-13.1,83,1.03,0.0,1029.16,318.4
2019-11-10 12:40,50.63044,-96.980795,7.3,11.3,283,999.55,-13.0,81,1.02,0.0,1029.16,318.4
2019-11-10 12:50,50.6304266666667,-96.980775,6.7,10.1,288,999.66,-12.8,78,1.02,0.0,1029.27,318.4
2019-11-10 13:00,50.6304333333333,-96.98077,6.5,10.0,285,999.81,-12.8,76,1.02,0.0,1029.43,131.7
2019-11-10 13:10,50.6304283333333,-96.9807733333333,5.4,7.6,282,999.97,-12.9,76,1.02,0.0,1029.60,131.7
2019-11-10 13:20,50.6304233333333,-96.9807716666667,5.9,9.2,282,999.99,-12.9,76,1.04,0.0,1029.63,131.7
2019-11-10 13:30,50.6304083333333,-96.9807916666667,6.1,9.1,284,1000.07,-13.0,75,1.05,0.0,1029.71,131.7
2019-11-10 13:40,50.6304116666667,-96.980785,6.2,8.9,283,1000.24,-13.0,73,1.05,0.0,1029.88,131.7
2019-11-10 13:50,50.6304033333333,-96.9808033333333,6.3,9.9,282,1000.40,-13.1,72,1.05,0.0,1030.04,131.7
2019-11-10 14:00,50.6304233333333,-96.980785,6.2,10.3,283,1000.55,-13.0,71,1.05,0.0,1030.19,90.0
2019-11-10 14:10,50.630425,-96.9807816666667,5.3,8.3,282,1000.67,-13.0,71,1.05,0.0,1030.33,90.0
2019-11-10 14:20,50.6304266666667,-96.9807766666667,6.1,9.7,281,1000.67,-13.0,71,1.06,0.0,1030.33,90.0
2019-11-10 14:30,50.6304383333333,-96.9807616666667,6.0,9.7,282,1000.71,-13.0,70,1.06,0.0,1030.37,90.0
2019-11-10 14:40,50.630435,-96.980775,6.1,10.1,281,1000.75,-12.9,70,1.06,0.0,1030.39,90.0
2019-11-10 14:50,50.630435,-96.9807766666667,6.9,10.1,286,1000.73,-12.8,70,1.06,0.0,1030.37,90.0
2019-11-10 15:00,50.630435,-96.9807783333333,5.9,9.7,286,1000.86,-12.6,70,1.06,0.0,1030.49,156.3
2019-11-10 15:10,50.63041,-96.9807666666667,6.7,11.2,285,1000.92,-12.5,69,1.05,0.0,1030.55,156.3
2019-11-10 15:20,50.6304233333333,-96.980765,6.8,13.1,292,1000.93,-12.3,69,1.05,0.0,1030.55,156.3
2019-11-10 15:30,50.6304233333333,-96.9807766666667,9.0,12.5,292,1000.88,-12.1,68,1.06,0.0,1030.49,156.3
2019-11-10 15:40,50.63047,-96.9807533333333,8.7,13.6,291,1000.97,-12.1,68,1.07,0.0,1030.58,156.3
2019-11-10 15:50,50.6304483333333,-96.98077,9.8,16.8,299,1000.98,-11.9,67,1.08,0.0,1030.58,156.3
2019-11-10 16:00,50.63044,-96.9807633333333,10.4,16.8,304,1001.00,-11.8,67,1.08,0.0,1030.59,360.0
2019-11-10 16:10,50.6304366666667,-96.9807633333333,12.3,18.1,306,1000.95,-11.7,66,1.08,0.0,1030.54,360.0
2019-11-10 16:20,50.630435,-96.9807633333333,11.0,17.6,306,1001.07,-11.4,65,1.08,0.0,1030.64,360.0
2019-11-10 16:30,50.6304333333333,-96.980765,10.8,17.0,315,1001.08,-10.9,63,1.09,0.0,1030.62,360.0
2019-11-10 16:40,50.6304316666667,-96.980765,10.0,15.4,312,1001.21,-10.4,59,1.09,0.0,1030.72,360.0
2019-11-10 16:50,50.6304366666667,-96.9807866666667,12.6,19.3,312,1001.16,-10.6,57,1.10,0.0,1030.67,360.0
2019-11-10 17:00,50.6304216666667,-96.9807683333333,13.4,20.8,314,1001.12,-10.6,57,1.11,0.0,1030.62,113.6
2019-11-10 17:10,50.6304366666667,-96.9807766666667,12.3,19.6,306,1001.28,-10.4,57,1.12,0.0,1030.76,113.6
2019-11-10 17:20,50.6304366666667,-96.9807783333333,11.7,16.8,308,1001.41,-10.2,56,1.13,0.0,1030.87,113.6
2019-11-10 17:30,50.63043,-96.9807666666667,14.6,21.5,315,1001.33,-10.2,55,1.13,0.0,1030.79,113.6
2019-11-10 17:40,50.6304383333333,-96.9807683333333,13.9,23.0,317,1001.45,-10.2,55,1.14,0.0,1030.91,113.6
2019-11-10 17:50,50.6304383333333,-96.9807683333333,11.7,19.4,308,1001.59,-10.0,54,1.15,0.0,1031.02,113.6
2019-11-10 18:00,50.6304383333333,-96.9807683333333,10.7,18.4,309,1001.68,-9.8,52,1.15,0.0,1031.10,66.4
2019-11-10 18:10,50.6304483333333,-96.98078,12.1,19.5,321,1001.69,-9.6,50,1.16,0.0,1031.09,66.4
2019-11-10 18:20,50.6304366666667,-96.980775,11.8,19.1,313,1001.73,-9.6,50,1.16,0.0,1031.10,66.4
2019-11-10 18:30,50.6304283333333,-96.98075,11.3,18.0,313,1001.73,-9.7,49,1.17,0.0,1031.08,66.4
2019-11-10 18:40,50.630435,-96.98076,11.3,17.5,310,1001.81,-9.7,50,1.17,0.0,1031.17,66.4
2019-11-10 18:50,50.6304366666667,-96.9807683333333,12.8,19.8,309,1001.81,-9.9,50,1.17,0.0,1031.18,66.4
2019-11-10 19:00,50.6304383333333,-96.9807716666667,12.1,17.3,305,1001.98,-9.9,50,1.18,0.0,1031.35,270.0
2019-11-10 19:10,50.6304383333333,-96.98077,10.8,15.9,306,1002.11,-9.8,51,1.18,0.0,1031.46,270.0
2019-11-10 19:20,50.6304383333333,-96.98077,9.6,15.9,313,1002.21,-9.7,51,1.18,0.0,1031.56,270.0
2019-11-10 19:30,50.6304383333333,-96.9807683333333,11.2,16.6,319,1002.20,-9.7,51,1.19,0.0,1031.55,270.0
2019-11-10 19:40,50.63044,-96.9807666666667,11.8,16.6,317,1002.19,-9.7,51,1.20,0.0,1031.53,270.0
2019-11-10 19:50,50.63044,-96.9807666666667,9.8,16.6,320,1002.31,-9.7,52,1.21,0.0,1031.64,270.0
2019-11-10 20:00,50.6304416666667,-96.9807666666667,10.6,15.8,297,1002.33,-9.9,52,1.21,0.0,1031.67,25.7
2019-11-10 20:10,50.6304416666667,-96.9807666666667,11.4,16.9,289,1002.33,-10.0,51,1.22,0.0,1031.66,25.7
2019-11-10 20:20,50.6304433333333,-96.9807666666667,10.0,14.6,310,1002.38,-10.0,52,1.23,0.0,1031.72,25.7
2019-11-10 20:30,50.630425,-96.9807733333333,11.0,15.6,317,1002.33,-9.6,51,1.23,0.0,1031.65,25.7
2019-11-10 20:40,50.6304433333333,-96.9807666666667,9.7,15.1,299,1002.48,-9.7,52,1.24,0.0,1031.82,25.7
2019-11-10 20:50,50.630445,-96.98077,9.6,15.4,281,1002.58,-9.9,53,1.24,0.0,1031.93,25.7
2019-11-10 21:00,50.63042,-96.9807466666667,10.8,18.0,325,1002.62,-10.0,56,1.24,0.0,1031.98,152.6
2019-11-10 21:10,50.63043,-96.9807583333333,11.4,17.2,327,1002.69,-10.5,57,1.24,0.0,1032.07,152.6
2019-11-10 21:20,50.63043,-96.9807583333333,10.4,17.2,312,1002.81,-11.0,54,1.24,0.0,1032.22,152.6
2019-11-10 21:30,50.63041,-96.9807716666667,8.8,12.9,304,1002.93,-11.1,56,1.23,0.0,1032.35,152.6
2019-11-10 21:40,50.6304133333333,-96.9807683333333,11.3,15.2,331,1002.88,-11.3,73,1.21,0.0,1032.31,152.6
2019-11-10 21:50,50.63042,-96.98077,10.4,15.0,324,1002.99,-11.6,70,1.20,0.0,1032.46,152.6
2019-11-10 22:00,50.6304233333333,-96.9807666666667,10.4,15.9,323,1003.02,-11.7,70,1.19,0.0,1032.50,156.5
2019-11-10 22:10,50.63042,-96.9807683333333,9.6,14.1,324,1003.09,-11.7,68,1.17,0.0,1032.57,156.5
2019-11-10 22:20,50.6304,-96.9807783333333,10.9,16.1,316,1003.17,-11.8,66,1.16,0.0,1032.63,156.5
2019-11-10 22:30,50.630415,-96.98077,9.5,14.3,328,1003.39,-11.9,67,1.15,0.0,1032.87,156.5
2019-11-10 22:40,50.6304233333333,-96.980775,8.5,12.6,334,1003.54,-11.9,71,1.12,0.0,1033.04,156.5
2019-11-10 22:50,50.6304316666667,-96.9807683333333,7.2,10.4,329,1003.67,-12.3,75,1.05,0.0,1033.20,156.5
2019-11-10 23:00,50.6304366666667,-96.980765,6.1,11.2,323,1003.76,-12.5,74,1.08,0.0,1033.33,142.0
2019-11-10 23:10,50.6304383333333,-96.9807683333333,7.5,14.3,328,1003.87,-12.5,72,1.10,0.0,1033.48,142.0
2019-11-10 23:20,50.6304383333333,-96.9807666666667,9.1,12.8,326,1003.97,-12.8,72,1.08,0.0,1033.60,142.0
2019-11-10 23:30,50.63044,-96.9807683333333,8.1,11.9,329,1004.15,-13.0,74,1.07,0.0,1033.81,142.0
2019-11-10 23:40,50.6304416666667,-96.98077,6.7,10.1,318,1004.35,-13.2,76,1.05,0.0,1034.05,142.0
